IBE605 MHTG-MROC

Flight info

Callsign IBE605
Flight time 0h 59m
Altitude 41000
Route LIBIS UA502 MGA UZ512 LIB BARRA3L
Aircraft A359/H-SDE2E3GHIJ3J4J5LM1ORWXY/LB1D1

Departure

Time 2026-05-08 13:19
Airport Toncontín Airport (MHTG)

Arrival

Time 2026-05-08 14:18
Airport Juan Santamaría International Airport (MROC)
Time Latitude Longitude Altitude Speed Heading
2026-05-08 12:34 14.06096 -87.21852 3272 ft 0 kts 288°
2026-05-08 13:07 14.06096 -87.21850 3277 ft 3 kts 287°
2026-05-08 13:07 14.06090 -87.21847 3277 ft 4 kts 316°
2026-05-08 13:07 14.06072 -87.21826 3278 ft 4 kts 313°
2026-05-08 13:08 14.06060 -87.21815 3278 ft 2 kts 327°
2026-05-08 13:13 14.06060 -87.21816 3279 ft 0 kts 327°
2026-05-08 13:13 14.06062 -87.21820 3279 ft 2 kts 304°
2026-05-08 13:14 14.06052 -87.21832 3280 ft 3 kts 216°
2026-05-08 13:14 14.06024 -87.21840 3282 ft 4 kts 194°
2026-05-08 13:14 14.06001 -87.21846 3283 ft 4 kts 193°
2026-05-08 13:14 14.05961 -87.21856 3286 ft 7 kts 195°
2026-05-08 13:15 14.05902 -87.21875 3290 ft 10 kts 199°
2026-05-08 13:15 14.05822 -87.21903 3294 ft 14 kts 199°
2026-05-08 13:15 14.05714 -87.21940 3297 ft 18 kts 198°
2026-05-08 13:15 14.05589 -87.21984 3303 ft 19 kts 200°
2026-05-08 13:16 14.05488 -87.22004 3308 ft 14 kts 181°
2026-05-08 13:16 14.05406 -87.21988 3311 ft 4 kts 127°
2026-05-08 13:16 14.05429 -87.21957 3310 ft 10 kts 39°
2026-05-08 13:16 14.05462 -87.21941 3309 ft 0 kts 20°
2026-05-08 13:18 14.05635 -87.21879 3300 ft 75 kts 18°
2026-05-08 13:18 14.06466 -87.21584 3262 ft 173 kts 19°
2026-05-08 13:19 14.07744 -87.21108 3896 ft 207 kts 20°
2026-05-08 13:19 14.09139 -87.20667 5060 ft 221 kts 12°
2026-05-08 13:19 14.10711 -87.20571 5849 ft 227 kts 356°
2026-05-08 13:19 14.12307 -87.20776 6401 ft 244 kts 352°
2026-05-08 13:20 14.14072 -87.21025 6816 ft 270 kts 355°
2026-05-08 13:20 14.15994 -87.21107 7495 ft 283 kts
2026-05-08 13:20 14.17986 -87.21066 8413 ft 288 kts
2026-05-08 13:20 14.19984 -87.20902 9422 ft 289 kts
2026-05-08 13:21 14.21995 -87.20631 10332 ft 293 kts
2026-05-08 13:21 14.24031 -87.20294 11200 ft 299 kts 11°
2026-05-08 13:21 14.26093 -87.19917 12081 ft 304 kts 10°
2026-05-08 13:21 14.28204 -87.19620 12963 ft 309 kts
2026-05-08 13:22 14.30359 -87.19386 13811 ft 314 kts
2026-05-08 13:22 14.32511 -87.18854 14392 ft 329 kts 25°
2026-05-08 13:22 14.34423 -87.17472 14759 ft 346 kts 47°
2026-05-08 13:22 14.35777 -87.15377 15257 ft 357 kts 65°
2026-05-08 13:23 14.36616 -87.12955 15992 ft 361 kts 74°
2026-05-08 13:23 14.37301 -87.10448 16716 ft 366 kts 74°
2026-05-08 13:23 14.38067 -87.07931 17444 ft 370 kts 72°
2026-05-08 13:23 14.38751 -87.05363 18165 ft 374 kts 79°
2026-05-08 13:24 14.38878 -87.03589 18625 ft 376 kts 93°
2026-05-08 13:24 14.38291 -87.00966 19356 ft 379 kts 114°
2026-05-08 13:24 14.36836 -86.98704 20103 ft 381 kts 132°
2026-05-08 13:24 14.34877 -86.96849 20796 ft 386 kts 142°
2026-05-08 13:25 14.32711 -86.95177 21429 ft 391 kts 142°
2026-05-08 13:25 14.30531 -86.93473 22068 ft 396 kts 141°
2026-05-08 13:25 14.28341 -86.91720 22709 ft 399 kts 141°
2026-05-08 13:25 14.26169 -86.89939 23422 ft 400 kts 140°
2026-05-08 13:26 14.23949 -86.88191 23889 ft 409 kts 146°
2026-05-08 13:26 14.21353 -86.86982 24300 ft 418 kts 162°
2026-05-08 13:26 14.18470 -86.86353 24985 ft 421 kts 171°
2026-05-08 13:26 14.15571 -86.86161 25655 ft 425 kts 179°
2026-05-08 13:27 14.12629 -86.86534 26307 ft 430 kts 193°
2026-05-08 13:27 14.09847 -86.87668 26967 ft 434 kts 208°
2026-05-08 13:27 14.07370 -86.89476 27550 ft 439 kts 220°
2026-05-08 13:27 14.05167 -86.91675 28140 ft 443 kts 225°
2026-05-08 13:28 14.02953 -86.93898 28725 ft 446 kts 221°
2026-05-08 13:28 14.00551 -86.95928 29300 ft 448 kts 217°
2026-05-08 13:28 13.98065 -86.97894 29815 ft 452 kts 217°
2026-05-08 13:28 13.95557 -86.99870 30241 ft 457 kts 217°
2026-05-08 13:29 13.93021 -87.01863 30731 ft 461 kts 217°
2026-05-08 13:29 13.90463 -87.03872 31199 ft 465 kts 217°
2026-05-08 13:29 13.87877 -87.05900 31680 ft 468 kts 217°
2026-05-08 13:29 13.85283 -87.07932 32150 ft 471 kts 217°
2026-05-08 13:30 13.82664 -87.09983 32590 ft 474 kts 217°
2026-05-08 13:30 13.80033 -87.12042 33011 ft 478 kts 217°
2026-05-08 13:30 13.77381 -87.14117 33435 ft 481 kts 217°
2026-05-08 13:30 13.74706 -87.16210 33846 ft 483 kts 217°
2026-05-08 13:31 13.72058 -87.18281 34222 ft 487 kts 217°
2026-05-08 13:31 13.69292 -87.20293 34628 ft 488 kts 211°
2026-05-08 13:31 13.66240 -87.21901 35128 ft 486 kts 201°
2026-05-08 13:31 13.63061 -87.22915 35594 ft 485 kts 192°
2026-05-08 13:32 13.59717 -87.23353 36028 ft 485 kts 181°
2026-05-08 13:32 13.56358 -87.23191 36443 ft 484 kts 171°
2026-05-08 13:32 13.53082 -87.22437 36837 ft 483 kts 161°
2026-05-08 13:32 13.49982 -87.21109 37225 ft 482 kts 151°
2026-05-08 13:33 13.47163 -87.19269 37646 ft 479 kts 141°
2026-05-08 13:33 13.44701 -87.16975 38071 ft 476 kts 131°
2026-05-08 13:33 13.42630 -87.14343 38485 ft 473 kts 126°
2026-05-08 13:33 13.40527 -87.11746 38878 ft 473 kts 133°
2026-05-08 13:34 13.38082 -87.09485 39253 ft 472 kts 140°
2026-05-08 13:34 13.35485 -87.07429 39594 ft 472 kts 142°
2026-05-08 13:34 13.32829 -87.05438 39910 ft 472 kts 143°
2026-05-08 13:34 13.30154 -87.03485 40224 ft 472 kts 144°
2026-05-08 13:35 13.27475 -87.01542 40527 ft 471 kts 144°
2026-05-08 13:35 13.24800 -86.99597 40705 ft 472 kts 144°
2026-05-08 13:35 13.22125 -86.97642 40829 ft 471 kts 143°
2026-05-08 13:35 13.19456 -86.95682 40920 ft 474 kts 143°
2026-05-08 13:36 13.14034 -86.91685 40936 ft 484 kts 143°
2026-05-08 13:36 13.08590 -86.87614 40934 ft 484 kts 143°
2026-05-08 13:37 13.03202 -86.83532 40929 ft 484 kts 143°
2026-05-08 13:37 12.97777 -86.79432 40925 ft 484 kts 143°
2026-05-08 13:38 12.92342 -86.75352 40925 ft 484 kts 143°
2026-05-08 13:38 12.86885 -86.71305 40925 ft 484 kts 143°
2026-05-08 13:39 12.81420 -86.67262 40925 ft 484 kts 143°
2026-05-08 13:39 12.75956 -86.63217 40925 ft 484 kts 143°
2026-05-08 13:40 12.70498 -86.59174 40918 ft 484 kts 143°
2026-05-08 13:40 12.65035 -86.55129 40915 ft 485 kts 143°
2026-05-08 13:41 12.59564 -86.51081 40915 ft 485 kts 143°
2026-05-08 13:41 12.54106 -86.47044 40915 ft 485 kts 143°
2026-05-08 13:42 12.48638 -86.43002 40915 ft 485 kts 143°
2026-05-08 13:42 12.43166 -86.38960 40916 ft 485 kts 143°
2026-05-08 13:43 12.37700 -86.34924 40915 ft 485 kts 143°
2026-05-08 13:43 12.32227 -86.30885 40916 ft 485 kts 143°
2026-05-08 13:44 12.26758 -86.26851 40915 ft 485 kts 143°
2026-05-08 13:44 12.21293 -86.22823 40915 ft 485 kts 143°
2026-05-08 13:45 12.15807 -86.18814 40915 ft 485 kts 146°
2026-05-08 13:45 12.09780 -86.15711 40915 ft 486 kts 156°
2026-05-08 13:46 12.03511 -86.13101 40917 ft 486 kts 158°
2026-05-08 13:46 11.97260 -86.10590 40916 ft 486 kts 158°
2026-05-08 13:47 11.90957 -86.08050 40907 ft 486 kts 158°
2026-05-08 13:47 11.84671 -86.05500 40906 ft 486 kts 158°
2026-05-08 13:48 11.81538 -86.04226 40695 ft 484 kts 158°
2026-05-08 13:48 11.78420 -86.02958 40447 ft 482 kts 158°
2026-05-08 13:48 11.75310 -86.01694 40201 ft 481 kts 158°
2026-05-08 13:48 11.72193 -86.00427 39946 ft 481 kts 158°
2026-05-08 13:49 11.69085 -85.99164 39694 ft 482 kts 158°
2026-05-08 13:49 11.65966 -85.97896 39464 ft 482 kts 158°
2026-05-08 13:49 11.62851 -85.96631 39209 ft 482 kts 158°
2026-05-08 13:49 11.59734 -85.95366 38957 ft 482 kts 158°
2026-05-08 13:50 11.56616 -85.94102 38708 ft 483 kts 157°
2026-05-08 13:50 11.53491 -85.92835 38462 ft 483 kts 158°
2026-05-08 13:50 11.50372 -85.91570 38209 ft 483 kts 158°
2026-05-08 13:50 11.47257 -85.90307 37951 ft 482 kts 158°
2026-05-08 13:51 11.44134 -85.89040 37713 ft 482 kts 158°
2026-05-08 13:51 11.41012 -85.87776 37467 ft 482 kts 158°
2026-05-08 13:51 11.37894 -85.86514 37216 ft 482 kts 158°
2026-05-08 13:51 11.34781 -85.85253 36968 ft 482 kts 158°
2026-05-08 13:52 11.31663 -85.83990 36719 ft 482 kts 158°
2026-05-08 13:52 11.28548 -85.82728 36472 ft 482 kts 158°
2026-05-08 13:52 11.25469 -85.81481 36226 ft 481 kts 158°
2026-05-08 13:52 11.22360 -85.80223 35978 ft 483 kts 158°
2026-05-08 13:53 11.19227 -85.78959 35731 ft 485 kts 158°
2026-05-08 13:53 11.16076 -85.77698 35477 ft 488 kts 158°
2026-05-08 13:53 11.12905 -85.76437 35230 ft 491 kts 158°
2026-05-08 13:53 11.09722 -85.75175 34981 ft 492 kts 158°
2026-05-08 13:54 11.06531 -85.73910 34732 ft 492 kts 158°
2026-05-08 13:54 11.03334 -85.72640 34486 ft 493 kts 158°
2026-05-08 13:54 11.00148 -85.71345 34240 ft 493 kts 158°
2026-05-08 13:54 10.96970 -85.70037 33988 ft 493 kts 157°
2026-05-08 13:55 10.93801 -85.68728 33735 ft 491 kts 157°
2026-05-08 13:55 10.90640 -85.67423 33485 ft 489 kts 158°
2026-05-08 13:55 10.84342 -85.64833 32976 ft 485 kts 158°
2026-05-08 13:56 10.81220 -85.63555 32734 ft 484 kts 158°
2026-05-08 13:56 10.78105 -85.62280 32490 ft 482 kts 158°
2026-05-08 13:56 10.74997 -85.61009 32233 ft 479 kts 158°
2026-05-08 13:56 10.71911 -85.59746 31976 ft 477 kts 158°
2026-05-08 13:57 10.68837 -85.58489 31740 ft 476 kts 158°
2026-05-08 13:57 10.65768 -85.57234 31482 ft 474 kts 158°
2026-05-08 13:57 10.62768 -85.55887 31231 ft 471 kts 150°
2026-05-08 13:57 10.60103 -85.53981 30942 ft 467 kts 137°
2026-05-08 13:58 10.58023 -85.51497 30475 ft 459 kts 122°
2026-05-08 13:58 10.56494 -85.48667 29908 ft 454 kts 116°
2026-05-08 13:58 10.55109 -85.45805 29346 ft 450 kts 115°
2026-05-08 13:58 10.53745 -85.42961 28778 ft 446 kts 115°
2026-05-08 13:59 10.52404 -85.40173 28232 ft 442 kts 115°
2026-05-08 13:59 10.51059 -85.37383 27676 ft 438 kts 116°
2026-05-08 13:59 10.49722 -85.34615 27117 ft 435 kts 115°
2026-05-08 13:59 10.48393 -85.31869 26563 ft 431 kts 115°
2026-05-08 14:00 10.47074 -85.29145 26000 ft 428 kts 115°
2026-05-08 14:00 10.45769 -85.26452 25446 ft 424 kts 115°
2026-05-08 14:00 10.44469 -85.23770 24879 ft 420 kts 115°
2026-05-08 14:00 10.43175 -85.21100 23948 ft 424 kts 115°
2026-05-08 14:01 10.41869 -85.18406 23110 ft 426 kts 115°
2026-05-08 14:01 10.40562 -85.15711 22419 ft 424 kts 115°
2026-05-08 14:01 10.39263 -85.13032 21756 ft 420 kts 115°
2026-05-08 14:01 10.37977 -85.10384 21107 ft 416 kts 115°
2026-05-08 14:02 10.36703 -85.07761 20436 ft 412 kts 115°
2026-05-08 14:02 10.35445 -85.05172 19977 ft 404 kts 116°
2026-05-08 14:02 10.34217 -85.02644 19551 ft 395 kts 116°
2026-05-08 14:02 10.33010 -85.00160 18985 ft 390 kts 116°
2026-05-08 14:03 10.31814 -84.97699 18382 ft 387 kts 116°
2026-05-08 14:03 10.30630 -84.95262 17782 ft 383 kts 116°
2026-05-08 14:03 10.29455 -84.92846 17177 ft 380 kts 116°
2026-05-08 14:03 10.28289 -84.90450 16578 ft 376 kts 116°
2026-05-08 14:04 10.27135 -84.88075 15994 ft 373 kts 116°
2026-05-08 14:04 10.25992 -84.85728 15432 ft 369 kts 116°
2026-05-08 14:04 10.24860 -84.83402 14825 ft 366 kts 116°
2026-05-08 14:04 10.23754 -84.81129 14235 ft 362 kts 116°
2026-05-08 14:05 10.22644 -84.78849 13642 ft 359 kts 116°
2026-05-08 14:05 10.21550 -84.76600 13284 ft 351 kts 116°
2026-05-08 14:05 10.20468 -84.74379 13030 ft 351 kts 116°
2026-05-08 14:05 10.19404 -84.72198 12906 ft 337 kts 116°
2026-05-08 14:06 10.18390 -84.70119 12750 ft 321 kts 115°
2026-05-08 14:06 10.17423 -84.68133 12594 ft 307 kts 116°
2026-05-08 14:06 10.16484 -84.66207 12182 ft 303 kts 115°
2026-05-08 14:06 10.15549 -84.64302 11825 ft 300 kts 116°
2026-05-08 14:07 10.14374 -84.62587 11557 ft 293 kts 134°
2026-05-08 14:07 10.12773 -84.61364 11309 ft 285 kts 147°
2026-05-08 14:07 10.11092 -84.60343 11060 ft 278 kts 148°
2026-05-08 14:07 10.09449 -84.59366 10805 ft 270 kts 148°
2026-05-08 14:08 10.07847 -84.58409 10542 ft 265 kts 148°
2026-05-08 14:08 10.06264 -84.57456 10132 ft 265 kts 148°
2026-05-08 14:08 10.04695 -84.56508 9934 ft 258 kts 148°
2026-05-08 14:08 10.03177 -84.55594 9718 ft 251 kts 148°
2026-05-08 14:09 10.01681 -84.54690 9391 ft 249 kts 148°
2026-05-08 14:09 10.00199 -84.53792 9056 ft 247 kts 148°
2026-05-08 14:09 9.98672 -84.53003 8703 ft 247 kts 161°
2026-05-08 14:09 9.97019 -84.52647 8393 ft 245 kts 168°
2026-05-08 14:10 9.95339 -84.52390 8196 ft 238 kts 174°
2026-05-08 14:10 9.93726 -84.52240 7974 ft 234 kts 173°
2026-05-08 14:10 9.92124 -84.52001 7694 ft 232 kts 168°
2026-05-08 14:10 9.90618 -84.51486 7466 ft 225 kts 148°
2026-05-08 14:11 9.89628 -84.50349 7323 ft 213 kts 109°
2026-05-08 14:11 9.89392 -84.48924 7242 ft 199 kts 89°
2026-05-08 14:11 9.89572 -84.47577 7126 ft 188 kts 76°
2026-05-08 14:11 9.89947 -84.46335 6996 ft 180 kts 70°
2026-05-08 14:12 9.90368 -84.45160 6888 ft 175 kts 70°
2026-05-08 14:12 9.90788 -84.43995 6885 ft 176 kts 70°
2026-05-08 14:12 9.91206 -84.42851 6905 ft 171 kts 69°
2026-05-08 14:12 9.91636 -84.41705 6933 ft 177 kts 69°
2026-05-08 14:13 9.92072 -84.40531 6805 ft 178 kts 69°
2026-05-08 14:13 9.92509 -84.39357 6560 ft 178 kts 69°
2026-05-08 14:13 9.92946 -84.38182 6285 ft 178 kts 70°
2026-05-08 14:13 9.93382 -84.37010 6024 ft 177 kts 69°
2026-05-08 14:14 9.93816 -84.35846 5774 ft 176 kts 69°
2026-05-08 14:14 9.94247 -84.34688 5538 ft 175 kts 69°
2026-05-08 14:14 9.94670 -84.33554 5313 ft 168 kts 69°
2026-05-08 14:14 9.95072 -84.32472 5084 ft 159 kts 69°
2026-05-08 14:15 9.95453 -84.31447 4879 ft 151 kts 69°
2026-05-08 14:15 9.95817 -84.30471 4674 ft 144 kts 69°
2026-05-08 14:15 9.96163 -84.29545 4496 ft 139 kts 70°
2026-05-08 14:15 9.96500 -84.28636 4316 ft 136 kts 70°
2026-05-08 14:16 9.96831 -84.27749 4144 ft 137 kts 70°
2026-05-08 14:16 9.97179 -84.26850 3974 ft 137 kts 70°
2026-05-08 14:16 9.97506 -84.25945 3770 ft 136 kts 72°
2026-05-08 14:16 9.97829 -84.25052 3542 ft 134 kts 71°
2026-05-08 14:17 9.98162 -84.24167 3378 ft 135 kts 70°
2026-05-08 14:17 9.98497 -84.23276 3198 ft 135 kts 70°
2026-05-08 14:17 9.98825 -84.22395 3012 ft 132 kts 70°
2026-05-08 14:17 9.99147 -84.21528 2968 ft 126 kts 69°
2026-05-08 14:18 9.99415 -84.20822 3001 ft 89 kts 68°
2026-05-08 14:18 9.99543 -84.20489 3015 ft 64 kts 70°
2026-05-08 14:18 9.99654 -84.20188 3032 ft 27 kts 69°
2026-05-08 14:18 9.99687 -84.20099 3031 ft 10 kts 69°
2026-05-08 14:19 9.99711 -84.20036 3038 ft 10 kts 64°
2026-05-08 14:19 9.99761 -84.20008 3038 ft 8 kts 355°
2026-05-08 14:19 9.99788 -84.20044 3035 ft 8 kts 274°
2026-05-08 14:19 9.99785 -84.20072 3036 ft 0 kts 260°
2026-05-08 14:22 9.99784 -84.20072 3033 ft 1 kts 260°
2026-05-08 14:22 9.99788 -84.20086 3032 ft 3 kts 293°
2026-05-08 14:22 9.99810 -84.20106 3032 ft 6 kts 329°
2026-05-08 14:22 9.99841 -84.20122 3032 ft 5 kts 337°
2026-05-08 14:23 9.99846 -84.20124 3032 ft 0 kts 337°